Weather History for KGPZ - September, 2011

Change the Weather History Date:

Thursday, September 15, 2011

  Actual Average Record
Temperature  
Mean Temperature 40 °F -  
Max Temperature 53 °F 66 °F 87 °F (1939)
Min Temperature 26 °F 43 °F 25 °F (1964)
Degree Days  
Heating Degree Days 26    
Moisture  
Dew Point 30 °F    
Average Humidity 68    
Maximum Humidity 93    
Minimum Humidity 43    
Precipitation  
Precipitation 0.00 in - - ()
Sea Level Pressure  
Sea Level Pressure 30.39 in    
Wind  
Wind Speed 1 mph (WNW)    
Max Wind Speed 9 mph    
Max Gust Speed -    
Visibility 8 miles    
Events      
Averages and records for this station are not official NWS values.
T = Trace of Precipitation, MM = Missing Value Source: NWS Daily Summary

Daily Weather History Graph

Daily Weather History Graph

Search for Another Location

Airport or City:

Trip Planner

Search our weather history database for the weather conditions in past years. The results will help you decide how hot, cold, wet, or windy it might be!

Date:

Astronomy

Sep. 15, 2011 Rise Set
Actual Time 6:51 AM CDT 7:26 PM CDT
Civil Twilight 6:20 AM CDT 7:57 PM CDT
Nautical Twilight 5:43 AM CDT 8:33 PM CDT
Astronomical Twilight 5:05 AM CDT 9:11 PM CDT
Moon 8:22 PM CDT (9/15) 10:18 AM CDT (9/15)
Length of Visible Light 13h 36m
Length of Day
12h 35m
Waning Gibbous, 90% of the Moon is Illuminated
Sep 15
Waning Gibbous
Sep 20
Last Quarter
Sep 27
New
Oct 3
First Quarter
Oct 11
Full

Hourly Weather History & Observations

Time (CDT) Temp. Windchill Dew Point Humidity Pressure Visibility Wind Dir Wind Speed Gust Speed Precip Events Conditions
12:15 AM 33.8 °F - 28.4 °F 81% 30.36 in 10.0 mi Calm Calm - N/A   Clear
12:35 AM 33.8 °F - 30.2 °F 87% 30.36 in 10.0 mi Calm Calm - N/A   Clear
12:55 AM 33.8 °F - 30.2 °F 87% 30.36 in 10.0 mi Calm Calm - N/A   Clear
1:15 AM 33.8 °F - 30.2 °F 87% 30.37 in 10.0 mi Calm Calm - N/A   Clear
1:35 AM 33.8 °F - 28.4 °F 81% 30.37 in 10.0 mi Calm Calm - N/A   Clear
1:55 AM 33.8 °F - 28.4 °F 81% 30.38 in 10.0 mi Calm Calm - N/A   Clear
2:15 AM 33.8 °F - 28.4 °F 81% 30.38 in 10.0 mi Calm Calm - N/A   Clear
2:35 AM 33.8 °F - 28.4 °F 81% 30.38 in 10.0 mi Calm Calm - N/A   Clear
2:55 AM 33.8 °F - 28.4 °F 81% 30.38 in 10.0 mi Calm Calm - N/A   Clear
3:15 AM 30.2 °F - 26.6 °F 86% 30.39 in 10.0 mi Calm Calm - N/A   Clear
3:35 AM 28.4 °F - 24.8 °F 86% 30.39 in 10.0 mi Calm Calm - N/A   Clear
3:55 AM 32.0 °F - 28.4 °F 87% 30.39 in 10.0 mi Calm Calm - N/A   Clear
4:15 AM 32.0 °F - 28.4 °F 87% 30.39 in 10.0 mi Calm Calm - N/A   Clear
4:35 AM 30.2 °F - 26.6 °F 86% 30.39 in 1.0 mi Calm Calm - N/A   Clear
4:55 AM 30.2 °F - 26.6 °F 86% 30.39 in 1.5 mi Calm Calm - N/A   Clear
5:15 AM 30.2 °F - 26.6 °F 86% 30.39 in 2.5 mi Calm Calm - N/A   Clear
5:35 AM 28.4 °F - 24.8 °F 86% 30.39 in 0.8 mi Calm Calm - N/A   Unknown
5:55 AM 28.4 °F - 26.6 °F 93% 30.40 in 3.0 mi Calm Calm - N/A   Clear
6:15 AM 28.4 °F - 24.8 °F 86% 30.40 in 0.8 mi Calm Calm - N/A   Unknown
6:35 AM 28.4 °F - 24.8 °F 86% 30.41 in 7.0 mi Calm Calm - N/A   Clear
6:55 AM 28.4 °F - 24.8 °F 86% 30.41 in 0.5 mi Calm Calm - N/A   Scattered Clouds
7:15 AM 28.4 °F - 24.8 °F 86% 30.41 in 0.2 mi Calm Calm - N/A   Overcast
7:35 AM 26.6 °F - 23.0 °F 86% 30.41 in 0.2 mi Calm Calm - N/A   Overcast
7:55 AM 28.4 °F - 24.8 °F 86% 30.43 in 0.2 mi Calm Calm - N/A   Overcast
8:15 AM 32.0 °F - 28.4 °F 87% 30.43 in 0.2 mi Calm Calm - N/A   Overcast
8:35 AM 35.6 °F - 33.8 °F 93% 30.43 in 0.2 mi Calm Calm - N/A   Overcast
8:55 AM 37.4 °F - 35.6 °F 93% 30.43 in 0.2 mi Calm Calm - N/A   Overcast
9:15 AM 39.2 °F - 37.4 °F 93% 30.43 in 10.0 mi Calm Calm - N/A   Mostly Cloudy
9:35 AM 41.0 °F - 37.4 °F 87% 30.43 in 10.0 mi Calm Calm - N/A   Scattered Clouds
9:55 AM 42.8 °F - 37.4 °F 81% 30.43 in 10.0 mi Calm Calm - N/A   Scattered Clouds
10:15 AM 44.6 °F - 35.6 °F 71% 30.43 in 10.0 mi Calm Calm - N/A   Partly Cloudy
10:35 AM 44.6 °F 43.1 °F 33.8 °F 66% 30.44 in 10.0 mi West 3.5 mph - N/A   Partly Cloudy
10:55 AM 46.4 °F 45.2 °F 30.2 °F 53% 30.44 in 10.0 mi WNW 3.5 mph - N/A   Scattered Clouds
11:15 AM 46.4 °F 42.9 °F 30.2 °F 53% 30.44 in 10.0 mi WNW 6.9 mph - N/A   Overcast
11:35 AM 46.4 °F - 30.2 °F 53% 30.43 in 10.0 mi Calm Calm - N/A   Mostly Cloudy
11:55 AM 48.2 °F - 30.2 °F 50% 30.43 in 10.0 mi NW 4.6 mph - N/A   Mostly Cloudy
12:15 PM 46.4 °F 45.2 °F 30.2 °F 53% 30.43 in 10.0 mi NNW 3.5 mph - N/A   Overcast
12:35 PM 46.4 °F 44.3 °F 30.2 °F 53% 30.42 in 10.0 mi WSW 4.6 mph - N/A   Mostly Cloudy
12:55 PM 48.2 °F - 30.2 °F 50% 30.42 in 10.0 mi Calm Calm - N/A   Mostly Cloudy
1:15 PM 48.2 °F - 28.4 °F 46% 30.41 in 10.0 mi Calm Calm - N/A   Mostly Cloudy
1:35 PM 50.0 °F - 28.4 °F 43% 30.40 in 10.0 mi SW 4.6 mph - N/A   Mostly Cloudy
1:55 PM 51.8 °F - 32.0 °F 47% 30.39 in 10.0 mi NNW 9.2 mph - N/A   Overcast
2:15 PM 51.8 °F - 30.2 °F 44% 30.38 in 10.0 mi NNW 6.9 mph - N/A   Overcast
2:35 PM 51.8 °F - 30.2 °F 44% 30.38 in 10.0 mi NW 6.9 mph - N/A   Scattered Clouds
2:55 PM 51.8 °F - 30.2 °F 44% 30.37 in 10.0 mi WNW 5.8 mph - N/A   Partly Cloudy
3:15 PM 51.8 °F - 30.2 °F 44% 30.37 in 10.0 mi Calm Calm - N/A   Scattered Clouds
3:35 PM 53.6 °F - 32.0 °F 44% 30.36 in 10.0 mi West 9.2 mph - N/A   Mostly Cloudy
3:55 PM 50.0 °F - 30.2 °F 47% 30.36 in 10.0 mi WNW 8.1 mph - N/A   Mostly Cloudy
4:15 PM 50.0 °F - 30.2 °F 47% 30.36 in 10.0 mi NW 4.6 mph - N/A   Overcast
4:35 PM 51.8 °F - 30.2 °F 44% 30.35 in 10.0 mi NW 5.8 mph - N/A   Overcast
4:55 PM 51.8 °F - 30.2 °F 44% 30.35 in 10.0 mi SSW 3.5 mph - N/A   Mostly Cloudy
5:15 PM 51.8 °F - 30.2 °F 44% 30.34 in 10.0 mi South 5.8 mph - N/A   Mostly Cloudy
5:35 PM 51.8 °F - 30.2 °F 44% 30.33 in 10.0 mi Calm Calm - N/A   Scattered Clouds
5:55 PM 51.8 °F - 30.2 °F 44% 30.33 in 10.0 mi Calm Calm - N/A   Partly Cloudy
6:15 PM 51.8 °F - 30.2 °F 44% 30.33 in 10.0 mi Calm Calm - N/A   Partly Cloudy
6:35 PM 51.8 °F - 30.2 °F 44% 30.32 in 10.0 mi Calm Calm - N/A   Clear
6:55 PM 50.0 °F - 35.6 °F 58% 30.31 in 10.0 mi Calm Calm - N/A   Clear
7:15 PM 46.4 °F - 33.8 °F 62% 30.30 in 10.0 mi Calm Calm - N/A   Clear
7:35 PM 42.8 °F - 33.8 °F 70% 30.30 in 10.0 mi Calm Calm - N/A   Clear
7:55 PM 39.2 °F 37.0 °F 32.0 °F 75% 30.30 in 8.0 mi South 3.5 mph - N/A   Clear
8:15 PM 37.4 °F 34.9 °F 32.0 °F 81% 30.30 in 10.0 mi South 3.5 mph - N/A   Clear
8:35 PM 37.4 °F 34.9 °F 30.2 °F 75% 30.30 in 10.0 mi South 3.5 mph - N/A   Clear
8:55 PM 35.6 °F 32.8 °F 30.2 °F 81% 30.30 in 10.0 mi South 3.5 mph - N/A   Clear
9:15 PM 35.6 °F 32.8 °F 30.2 °F 81% 30.30 in 10.0 mi South 3.5 mph - N/A   Clear
9:35 PM 37.4 °F 33.8 °F 30.2 °F 75% 30.30 in 10.0 mi South 4.6 mph - N/A   Clear
9:55 PM 35.6 °F 32.8 °F 30.2 °F 81% 30.30 in 10.0 mi South 3.5 mph - N/A   Clear
10:15 PM 35.6 °F 32.8 °F 30.2 °F 81% 30.30 in 10.0 mi SSE 3.5 mph - N/A   Clear
10:35 PM 35.6 °F 32.8 °F 30.2 °F 81% 30.30 in 10.0 mi SSE 3.5 mph - N/A   Clear
10:55 PM 33.8 °F 30.8 °F 30.2 °F 87% 30.30 in 10.0 mi South 3.5 mph - N/A   Clear
11:15 PM 33.8 °F 29.6 °F 28.4 °F 81% 30.30 in 10.0 mi South 4.6 mph - N/A   Clear
11:35 PM 33.8 °F 29.6 °F 30.2 °F 87% 30.30 in 10.0 mi South 4.6 mph - N/A   Clear
11:55 PM 35.6 °F 32.8 °F 30.2 °F 81% 30.30 in 10.0 mi South 3.5 mph - N/A   Clear